Location: Focicchia
(42.2496°N, 9.2935°E)
Time: 17:10:13
(UTC+00:00)

BREEZE-M R/B - Pass Details

Date: 07 June 2020
Orbit: 311 x 4533 km, 49.7° (Epoch: 03 July)

Event Time Altitude Azimuth Distance (km) Brightness Sun altitude
Rises 02:54:45 0° 300° (WNW) 2,748 6.2 -8.5°
Reaches altitude 10° 02:57:26 10° 307° (NW) 1,522 5.0 -8.1°
Maximum altitude 03:00:21 42° 21° (NNE) 497 3.2 -7.7°
Drops below altitude 10° 03:02:40 10° 96° (E) 1,201 5.3 -7.4°
Sets 03:04:32 0° 104° (ESE) 2,055 6.3 -7.1°
